User: anonymous   Login
Location: Caltech
(34.1382°N, 118.1253°W)
Time: 23:07:37
(UTC-07:00)
Language:

NOSS 3-2 (A) - Orbit

View from above orbital plane
View from above orbital plane
View from above satellite
View from above satellite

Ground track
Ground track

The orbit data is extracted from the following two-line orbital elements,

1 28095U 03054A   16106.05780404 0.00000030  00000-0  43889-4 0    00
2 28095  63.4284 324.9973 0264000 357.8515   2.1485 13.41334659    05
Epoch (UTC): 15 April 2016 01:23:14
Eccentricity: 0.0264000
inclination: 63.4284°
perigee height: 907 km
apogee height: 1302 km
right ascension of ascending node: 324.9973°
argument of perigee: 357.8515°
revolutions per day: 13.41334659
mean anomaly at epoch: 2.1485°
orbit number at epoch: 0

The dashed part of the orbit path shows where the satellite is in the earth's shadow,  

DLR